Terminal Aerodrome Forecast
Issued by NWS

Home | Current Version | Previous Version | Graphics & Text | Print | Product List | Glossary On
Versions: 1 2 3 4 5 6 7 8 9 10 11 12 13 14 15 16
000
FTUS43 KIWX 251738
TAFSBN
TAF
KSBN 251738Z 2518/2618 31011KT P6SM OVC030
     FM252300 33008KT P6SM BKN045
     FM260200 VRB02KT P6SM BKN035=

USA.gov is the U.S. government's official web portal to all federal, state and local government web resources and services.